| time (UTC) | temp C | wind direction | speed KPH | gust KPH | rain 1hr cm | rain 24hr cm | rain mn cm | humidity % | barometer mb |
| 20260509043558 | 10 | 212 | 0.0 | 1.6 | 0.00 | 0.20 | 0.00 | 91 | 1008.4 |
| 20260509042318 | 10 | 212 | 0.0 | 0.0 | 0.00 | 0.20 | 0.00 | 91 | 1008.4 |
| 20260509041123 | 10 | 229 | 0.0 | 0.0 | 0.00 | 0.20 | 0.00 | 91 | 1008.5 |
| 20260509035847 | 10 | 229 | 0.0 | 0.0 | 0.00 | 0.20 | 0.20 | 91 | 1008.6 |
| 20260509034658 | 11 | 229 | 0.0 | 1.6 | 0.00 | 0.20 | 0.20 | 91 | 1008.8 |
| 20260509033430 | 11 | 229 | 0.0 | 0.0 | 0.00 | 0.20 | 0.20 | 91 | 1008.8 |
| 20260509032208 | 11 | 229 | 0.0 | 0.0 | 0.00 | 0.20 | 0.20 | 90 | 1009.0 |
| 20260509030956 | 11 | 229 | 0.0 | 0.0 | 0.00 | 0.20 | 0.20 | 90 | 1009.2 |
| 20260509025754 | 11 | 229 | 0.0 | 0.0 | 0.00 | 0.20 | 0.20 | 90 | 1008.9 |
| 20260509024551 | 11 | 229 | 0.0 | 0.0 | 0.00 | 0.20 | 0.20 | 90 | 1009.0 |
| 20260509023348 | 11 | 229 | 0.0 | 0.0 | 0.00 | 0.23 | 0.20 | 90 | 1009.0 |
| 20260509022126 | 11 | 229 | 0.0 | 3.2 | 0.00 | 0.28 | 0.20 | 89 | 1009.0 |
| 20260509020918 | 12 | 238 | 0.0 | 0.0 | 0.00 | 0.28 | 0.20 | 89 | 1009.1 |
| 20260509015744 | 12 | 136 | 0.0 | 6.4 | 0.00 | 0.28 | 0.20 | 89 | 1009.0 |
| 20260509013404 | 12 | 134 | 0.0 | 4.8 | 0.00 | 0.28 | 0.20 | 89 | 1008.9 |
| 20260509012220 | 12 | 136 | 0.0 | 9.7 | 0.00 | 0.28 | 0.20 | 89 | 1008.8 |
| 20260509010940 | 12 | 113 | 0.0 | 11.3 | 0.00 | 0.28 | 0.20 | 88 | 1008.7 |
| 20260509005742 | 12 | 225 | 0.0 | 6.4 | 0.00 | 0.28 | 0.20 | 88 | 1008.6 |
| 20260509004604 | 12 | 171 | 0.0 | 6.4 | 0.00 | 0.28 | 0.20 | 88 | 1008.5 |
| 20260509003432 | 12 | 164 | 0.0 | 3.2 | 0.00 | 0.28 | 0.20 | 88 | 1008.6 |
| 20260509002239 | 13 | 88 | 0.0 | 6.4 | 0.00 | 0.28 | 0.20 | 87 | 1008.7 |
| 20260509001056 | 13 | 214 | 0.0 | 3.2 | 0.00 | 0.28 | 0.20 | 87 | 1008.8 |
| 20260508235831 | 13 | 84 | 0.0 | 1.6 | 0.00 | 0.28 | 0.20 | 86 | 1008.8 |
| 20260508234629 | 13 | 114 | 0.0 | 9.7 | 0.00 | 0.28 | 0.20 | 85 | 1008.8 |
| 20260508233425 | 13 | 130 | 0.0 | 4.8 | 0.00 | 0.28 | 0.20 | 85 | 1008.8 |
| 20260508232206 | 13 | 182 | 0.0 | 6.4 | 0.00 | 0.28 | 0.20 | 84 | 1008.8 |
| 20260508230952 | 13 | 135 | 0.0 | 12.9 | 0.00 | 0.28 | 0.20 | 85 | 1008.9 |
| 20260508225715 | 13 | 143 | 0.0 | 11.3 | 0.00 | 0.28 | 0.20 | 85 | 1008.9 |
| 20260508224439 | 13 | 170 | 0.0 | 3.2 | 0.00 | 0.28 | 0.20 | 86 | 1009.1 |
| 20260508223224 | 13 | 183 | 0.0 | 4.8 | 0.00 | 0.28 | 0.20 | 86 | 1009.1 |
| 20260508222010 | 13 | 301 | 0.0 | 6.4 | 0.00 | 0.28 | 0.20 | 86 | 1009.1 |
| 20260508220828 | 13 | 148 | 1.6 | 0.0 | 0.00 | 0.28 | 0.20 | 86 | 1009.0 |
| 20260508215618 | 13 | 257 | 0.0 | 12.9 | 0.00 | 0.28 | 0.20 | 86 | 1009.1 |
| 20260508214347 | 13 | 115 | 0.0 | 12.9 | 0.00 | 0.28 | 0.20 | 86 | 1009.0 |
| 20260508213217 | 13 | 86 | 0.0 | 12.9 | 0.00 | 0.28 | 0.20 | 85 | 1009.2 |
| 20260508211937 | 13 | 145 | 1.6 | 9.7 | 0.00 | 0.28 | 0.20 | 84 | 1009.1 |
| 20260508210732 | 13 | 71 | 0.0 | 12.9 | 0.00 | 0.28 | 0.20 | 85 | 1009.4 |
| 20260508205456 | 13 | 226 | 0.0 | 14.5 | 0.00 | 0.28 | 0.20 | 86 | 1009.4 |
| 20260508204239 | 13 | 114 | 0.0 | 14.5 | 0.00 | 0.28 | 0.20 | 86 | 1009.5 |
| 20260508203038 | 13 | 208 | 0.0 | 6.4 | 0.00 | 0.28 | 0.20 | 86 | 1009.8 |
| 20260508201810 | 13 | 222 | 1.6 | 17.7 | 0.00 | 0.25 | 0.15 | 84 | 1010.1 |
| 20260508200602 | 13 | 258 | 0.0 | 12.9 | 0.13 | 0.25 | 0.15 | 82 | 1010.2 |
| 20260508195403 | 14 | 244 | 4.8 | 29.0 | 0.00 | 0.23 | 0.15 | 79 | 1010.2 |
| 20260508194153 | 15 | 62 | 4.8 | 29.0 | 0.00 | 0.20 | 0.13 | 78 | 1010.2 |
| 20260508192938 | 15 | 80 | 0.0 | 11.3 | 0.00 | 0.20 | 0.13 | 78 | 1010.1 |
| 20260508191712 | 16 | 268 | 0.0 | 11.3 | 0.00 | 0.20 | 0.13 | 73 | 1010.2 |
| 20260508190517 | 16 | 103 | 0.0 | 3.2 | 0.00 | 0.20 | 0.13 | 73 | 1010.2 |
| 20260508185345 | 16 | 248 | 0.0 | 17.7 | 0.00 | 0.20 | 0.13 | 70 | 1010.2 |
| 20260508184156 | 16 | 155 | 1.6 | 17.7 | 0.00 | 0.20 | 0.13 | 70 | 1010.4 |
| 20260508182941 | 16 | 37 | 0.0 | 11.3 | 0.00 | 0.20 | 0.13 | 68 | 1010.6 |
| 20260508181750 | 16 | 111 | 0.0 | 6.4 | 0.00 | 0.20 | 0.13 | 66 | 1010.6 |
| 20260508180555 | 15 | 302 | 0.0 | 4.8 | 0.00 | 0.20 | 0.13 | 70 | 1010.9 |
| 20260508175343 | 15 | 114 | 0.0 | 4.8 | 0.00 | 0.20 | 0.13 | 71 | 1011.2 |
| 20260508174213 | 15 | 107 | 0.0 | 6.4 | 0.00 | 0.20 | 0.13 | 73 | 1011.4 |
| 20260508173032 | 14 | 25 | 0.0 | 4.8 | 0.00 | 0.20 | 0.13 | 75 | 1011.5 |
| 20260508171801 | 13 | 229 | 0.0 | 0.0 | 0.00 | 0.20 | 0.13 | 80 | 1011.8 |
| 20260508170526 | 13 | 230 | 0.0 | 3.2 | 0.00 | 0.20 | 0.13 | 79 | 1012.1 |
| 20260508165340 | 12 | 238 | 0.0 | 0.0 | 0.00 | 0.20 | 0.13 | 80 | 1012.3 |
| 20260508164210 | 12 | 193 | 0.0 | 0.0 | 0.00 | 0.20 | 0.13 | 83 | 1012.5 |
| 20260508163008 | 12 | 193 | 0.0 | 0.0 | 0.00 | 0.20 | 0.13 | 83 | 1012.9 |
| 20260508161828 | 12 | 193 | 0.0 | 0.0 | 0.00 | 0.20 | 0.13 | 84 | 1012.8 |
| 20260508160625 | 12 | 78 | 0.0 | 9.7 | 0.00 | 0.20 | 0.13 | 83 | 1012.7 |
| 20260508155429 | 13 | 136 | 1.6 | 6.4 | 0.00 | 0.20 | 0.13 | 81 | 1012.5 |
| 20260508154159 | 12 | 138 | 1.6 | 9.7 | 0.00 | 0.20 | 0.13 | 84 | 1012.7 |
| 20260508152949 | 11 | 200 | 0.0 | 6.4 | 0.00 | 0.20 | 0.13 | 86 | 1012.8 |
| 20260508151759 | 11 | 98 | 1.6 | 6.4 | 0.00 | 0.20 | 0.13 | 87 | 1012.8 |
| 20260508150546 | 11 | 201 | 0.0 | 6.4 | 0.00 | 0.20 | 0.13 | 88 | 1012.9 |
| 20260508145328 | 10 | 142 | 0.0 | 6.4 | 0.00 | 0.20 | 0.13 | 89 | 1012.9 |
| 20260508144123 | 10 | 81 | 0.0 | 4.8 | 0.00 | 0.20 | 0.13 | 89 | 1013.3 |
| 20260508142911 | 10 | 94 | 0.0 | 4.8 | 0.10 | 0.20 | 0.13 | 88 | 1013.4 |
| 20260508141723 | 10 | 137 | 0.0 | 4.8 | 0.15 | 0.20 | 0.13 | 88 | 1013.3 |
| 20260508140530 | 10 | 315 | 0.0 | 11.3 | 0.00 | 0.15 | 0.08 | 88 | 1013.7 |
| 20260508135346 | 10 | 140 | 0.0 | 11.3 | 0.00 | 0.13 | 0.05 | 88 | 1013.7 |
| 20260508134132 | 10 | 0 | 0.0 | 1.6 | 0.00 | 0.13 | 0.05 | 88 | 1013.5 |
| 20260508132856 | 10 | 0 | 0.0 | 0.0 | 0.00 | 0.13 | 0.05 | 87 | 1013.3 |
| 20260508131632 | 10 | 268 | 0.0 | 9.7 | 0.00 | 0.10 | 0.03 | 86 | 1013.2 |
| 20260508130453 | 10 | 232 | 0.0 | 4.8 | 0.00 | 0.10 | 0.03 | 85 | 1013.1 |
| 20260508125310 | 10 | 84 | 0.0 | 1.6 | 0.00 | 0.10 | 0.03 | 85 | 1013.3 |
| 20260508124117 | 10 | 245 | 0.0 | 9.7 | 0.00 | 0.10 | 0.03 | 85 | 1013.3 |
| 20260508122900 | 10 | 70 | 0.0 | 4.8 | 0.00 | 0.10 | 0.03 | 87 | 1013.3 |
| 20260508121645 | 10 | 198 | 0.0 | 3.2 | 0.00 | 0.10 | 0.03 | 87 | 1013.2 |
| 20260508120455 | 10 | 219 | 0.0 | 4.8 | 0.00 | 0.10 | 0.03 | 87 | 1013.1 |
| 20260508115311 | 10 | 238 | 0.0 | 3.2 | 0.00 | 0.10 | 0.03 | 89 | 1013.2 |
| 20260508114106 | 9 | 120 | 0.0 | 3.2 | 0.00 | 0.10 | 0.03 | 89 | 1012.9 |
| 20260508112930 | 8 | 130 | 0.0 | 1.6 | 0.00 | 0.10 | 0.03 | 90 | 1012.9 |
| 20260508111703 | 8 | 227 | 0.0 | 4.8 | 0.00 | 0.10 | 0.03 | 90 | 1012.7 |
| 20260508110441 | 8 | 146 | 0.0 | 3.2 | 0.00 | 0.10 | 0.03 | 90 | 1012.7 |
| 20260508105309 | 8 | 143 | 0.0 | 11.3 | 0.00 | 0.10 | 0.03 | 91 | 1012.7 |
| 20260508104102 | 8 | 69 | 0.0 | 11.3 | 0.00 | 0.10 | 0.03 | 91 | 1012.7 |
| 20260508102905 | 7 | 100 | 0.0 | 1.6 | 0.00 | 0.10 | 0.03 | 91 | 1012.7 |
| 20260508101710 | 7 | 168 | 0.0 | 3.2 | 0.00 | 0.10 | 0.03 | 91 | 1012.6 |
| 20260508100430 | 7 | 168 | 0.0 | 3.2 | 0.00 | 0.08 | 0.00 | 91 | 1012.7 |
| 20260508095150 | 7 | 200 | 0.0 | 0.0 | 0.00 | 0.08 | 0.00 | 91 | 1012.6 |
| 20260508093918 | 6 | 200 | 0.0 | 0.0 | 0.00 | 0.08 | 0.00 | 90 | 1012.8 |
| 20260508092728 | 7 | 200 | 0.0 | 0.0 | 0.00 | 0.08 | 0.00 | 90 | 1013.0 |
| 20260508091530 | 7 | 200 | 0.0 | 0.0 | 0.00 | 0.08 | 0.00 | 91 | 1013.0 |
| 20260508090328 | 6 | 200 | 0.0 | 0.0 | 0.00 | 0.08 | 0.00 | 90 | 1012.9 |
| 20260508085135 | 6 | 200 | 0.0 | 0.0 | 0.00 | 0.08 | 0.00 | 90 | 1012.9 |
| 20260508083857 | 6 | 200 | 0.0 | 0.0 | 0.00 | 0.08 | 0.00 | 90 | 1012.8 |
| 20260508082644 | 6 | 200 | 0.0 | 1.6 | 0.00 | 0.08 | 0.00 | 91 | 1012.9 |
| 20260508081426 | 6 | 200 | 0.0 | 1.6 | 0.00 | 0.08 | 0.00 | 90 | 1012.8 |
| 20260508080214 | 6 | 200 | 0.0 | 0.0 | 0.00 | 0.08 | 0.00 | 90 | 1012.9 |
| 20260508074933 | 6 | 225 | 0.0 | 3.2 | 0.00 | 0.08 | 0.00 | 90 | 1012.8 |
| 20260508073747 | 6 | 241 | 0.0 | 0.0 | 0.00 | 0.08 | 0.00 | 90 | 1012.8 |
| 20260508072609 | 6 | 118 | 0.0 | 0.0 | 0.00 | 0.08 | 0.00 | 90 | 1012.7 |
| 20260508071403 | 6 | 131 | 0.0 | 1.6 | 0.00 | 0.08 | 0.00 | 90 | 1012.8 |
| 20260508070157 | 6 | 131 | 0.0 | 1.6 | 0.00 | 0.08 | 0.00 | 90 | 1012.9 |
| 20260508063748 | 6 | 131 | 0.0 | 3.2 | 0.00 | 0.08 | 0.00 | 90 | 1013.1 |
| 20260508062617 | 6 | 267 | 0.0 | 0.0 | 0.00 | 0.08 | 0.00 | 90 | 1013.2 |
| 20260508061424 | 6 | 267 | 0.0 | 0.0 | 0.00 | 0.08 | 0.00 | 89 | 1013.1 |
| 20260508060253 | 6 | 267 | 0.0 | 1.6 | 0.00 | 0.08 | 0.00 | 90 | 1013.2 |
| 20260508055039 | 6 | 267 | 0.0 | 0.0 | 0.00 | 0.08 | 0.00 | 90 | 1013.3 |
| 20260508053843 | 6 | 267 | 0.0 | 0.0 | 0.00 | 0.08 | 0.00 | 90 | 1013.5 |
| 20260508052708 | 6 | 267 | 0.0 | 0.0 | 0.00 | 0.08 | 0.00 | 90 | 1013.5 |
| 20260508051517 | 6 | 267 | 0.0 | 0.0 | 0.00 | 0.08 | 0.00 | 90 | 1013.5 |
| 20260508050314 | 6 | 267 | 0.0 | 0.0 | 0.00 | 0.08 | 0.00 | 89 | 1013.5 |
| 20260508045053 | 6 | 267 | 0.0 | 0.0 | 0.00 | 0.08 | 0.00 | 89 | 1013.5 |